Location: Karcze
(52.0945°N, 22.4786°E)
Time: 23:49:05
(UTC+00:00)

A-11 Canister half - Pass Details

Date: 06 August 2021
Orbit: 1515 x 1685 km, 47.2° (Epoch: 19 September)

Event Time Altitude Azimuth Distance (km) Brightness Sun altitude
Rises 17:01:49 0° 264° (W) 4,811 13.1 9.1°
Reaches altitude 10° 17:04:54 10° 262° (W) 3,847 12.6 8.6°
Maximum altitude 17:14:39 68° 183° (S) 1,768 9.5 7.2°
Drops below altitude 10° 17:24:40 10° 104° (ESE) 3,945 10.5 5.7°
Sets 17:27:52 0° 102° (ESE) 4,938 11.0 5.3°
